Homer, AK

5:46 AM AKDT on September 22, 2017 (GMT -0800)
Homer

Weather History for PAHO - January, 2013

Change the Weather History Date:

Saturday, January 12, 2013

  Actual Average Record
Temperature  
Mean Temperature 38 °F -  
Max Temperature 46 °F 25 °F 51 °F (2015)
Min Temperature 30 °F 13 °F -13 °F (1980)
Degree Days  
Heating Degree Days 27    
Moisture  
Dew Point 33 °F    
Average Humidity 79    
Maximum Humidity 93    
Minimum Humidity 61    
Precipitation  
Precipitation 0.30 in - - ()
Sea Level Pressure  
Sea Level Pressure 29.93 in    
Wind  
Wind Speed 6 mph (SSW)    
Max Wind Speed 17 mph    
Max Gust Speed 29 mph    
Visibility 9 miles    
Events Rain    
Averages and records for this station are not official NWS values.
T = Trace of Precipitation, MM = Missing Value Source: NWS Daily Summary

Daily Weather History Graph

Daily Weather History Graph

Search for Another Location

Airport or City:

Trip Planner

Search our weather history database for the weather conditions in past years. The results will help you decide how hot, cold, wet, or windy it might be!

Date:

Astronomy

Jan. 12, 2013 Rise Set
Actual Time 9:54 AM AKST 4:35 PM AKST
Civil Twilight 9:01 AM AKST 5:27 PM AKST
Nautical Twilight 8:07 AM AKST 6:21 PM AKST
Astronomical Twilight 7:18 AM AKST 7:11 PM AKST
Moon 9:48 AM AKST (1/12) 6:54 PM AKST (1/12)
Length of Visible Light 8h 26m
Length of Day
6h 40m
New Moon, 2% of the Moon is Illuminated
Jan 12
New Moon
Jan 18
First Quarter
Jan 26
Full
Feb 3
Last Quarter
Feb 9
New

Hourly Weather History & Observations

Time (AKST) Temp. Windchill Dew Point Humidity Pressure Visibility Wind Dir Wind Speed Gust Speed Precip Events Conditions
12:04 AM 30.2 °F 23.4 °F 28.4 °F 93% 30.08 in 3.0 mi SW 6.9 mph - N/A   Mostly Cloudy
12:53 AM 33.1 °F 26.9 °F 30.9 °F 92% 30.08 in 10.0 mi WSW 6.9 mph - N/A   Scattered Clouds
1:36 AM 32.0 °F - 30.2 °F 93% 30.06 in 9.0 mi Calm Calm - N/A   Mostly Cloudy
1:53 AM 32.0 °F - 30.0 °F 92% 30.08 in 6.0 mi Calm Calm - N/A   Overcast
2:16 AM 32.0 °F 27.5 °F 30.2 °F 93% 30.08 in 8.0 mi SW 4.6 mph - N/A   Partly Cloudy
3:53 AM 34.0 °F 28.0 °F 32.0 °F 92% 30.04 in 10.0 mi East 6.9 mph - N/A   Overcast
4:14 AM 33.8 °F 28.6 °F 32.0 °F 93% 30.03 in 10.0 mi North 5.8 mph - N/A   Overcast
4:53 AM 34.0 °F 28.0 °F 30.9 °F 89% 30.00 in 10.0 mi ENE 6.9 mph - N/A   Overcast
5:53 AM 42.1 °F 35.7 °F 30.9 °F 65% 29.99 in 10.0 mi ESE 11.5 mph - N/A   Overcast
6:53 AM 42.1 °F 37.1 °F 32.0 °F 67% 29.95 in 10.0 mi SSE 8.1 mph - N/A   Overcast
7:53 AM 42.1 °F - 32.0 °F 67% 29.94 in 10.0 mi Calm Calm - 0.00 in   Overcast
8:53 AM 41.0 °F 37.1 °F 33.1 °F 73% 29.94 in 10.0 mi WNW 5.8 mph - 0.01 in   Overcast
9:53 AM 39.0 °F 34.8 °F 34.0 °F 82% 29.95 in 10.0 mi NW 5.8 mph - 0.03 in Rain Light Rain
10:53 AM 39.9 °F 37.8 °F 35.1 °F 83% 29.94 in 10.0 mi NNW 3.5 mph - 0.05 in Rain Light Rain
11:53 AM 39.0 °F 34.8 °F 35.1 °F 86% 29.95 in 10.0 mi WNW 5.8 mph - 0.07 in Rain Light Rain
12:53 PM 39.9 °F 35.8 °F 35.1 °F 83% 29.94 in 7.0 mi WNW 5.8 mph - 0.04 in Rain Light Rain
1:53 PM 39.0 °F 36.8 °F 35.1 °F 86% 29.90 in 10.0 mi NW 3.5 mph - 0.03 in Rain Light Rain
2:53 PM 39.0 °F 34.0 °F 35.1 °F 86% 29.88 in 7.0 mi West 6.9 mph - 0.01 in Rain Light Rain
4:53 PM 37.0 °F - 35.1 °F 93% 29.83 in 8.0 mi Calm Calm - 0.00 in Rain Light Rain
5:53 PM 41.0 °F 39.0 °F 35.1 °F 79% 29.85 in 10.0 mi Variable 3.5 mph 18.4 mph 0.01 in Rain Light Rain
6:53 PM 44.1 °F 36.8 °F 32.0 °F 63% 29.84 in 10.0 mi SE 16.1 mph 27.6 mph 0.00 in Rain Light Rain
7:00 PM 42.8 °F 36.6 °F 32.0 °F 66% 29.84 in 10.0 mi SE 11.5 mph 26.5 mph 0.00 in Rain Light Rain
7:53 PM 41.0 °F 37.1 °F 33.1 °F 73% 29.82 in 10.0 mi Variable 5.8 mph - 0.00 in   Overcast
8:53 PM 44.1 °F 38.6 °F 33.1 °F 65% 29.82 in 10.0 mi East 10.4 mph 18.4 mph 0.00 in Rain Light Rain
9:53 PM 45.0 °F 38.5 °F 33.1 °F 63% 29.80 in 10.0 mi ESE 13.8 mph 23.0 mph 0.00 in   Overcast
10:53 PM 46.9 °F - 34.0 °F 61% 29.78 in 10.0 mi SE 15.0 mph 25.3 mph 0.00 in Rain Light Rain
11:53 PM 46.0 °F 39.0 °F 34.0 °F 63% 29.78 in 10.0 mi SSE 17.3 mph 28.8 mph 0.05 in Rain Light Rain